User: anonymous   Login
Location: Unspecified
(32.3120°N, 0.0000°E)
Time: 06:14:28
(UTC+00:00)
Language:

Cosmos 2378 rocket - Orbit

View from above orbital plane
View from above orbital plane
View from above satellite
View from above satellite

Ground track
Ground track

The orbit is defined by the following mean orbital elements,

1 26819U          26088.00739617 +.00000000 +00000-0 +18651-3 0 00000
2 26819  82.9204 259.8559 0022464 200.9372 280.0797 13.75939347    01
Epoch (UTC): 29 March 2026 00:10:39
Eccentricity: 0.0022464
inclination: 82.9204°
perigee height: 962 km
apogee height: 995 km
right ascension of ascending node: 259.8559°
argument of perigee: 200.9372°
revolutions per day: 13.75939347
mean anomaly at epoch: 280.0797°

The dashed part of the orbit path shows where the satellite is in the earth's shadow,  

DLR